| time (UTC) | temp F | wind direction | speed MPH | gust MPH | rain 1hr in | rain 24hr in | rain mn in | humidity % | barometer mb |
| 20260503002055 | 41 | 0 | 0.0 | 3.0 | 0.00 | 0.03 | 0.01 | 72 | 1014.1 |
| 20260503001600 | 41 | 0 | 0.0 | 5.0 | 0.00 | 0.03 | 0.01 | 72 | 1014.0 |
| 20260503001057 | 41 | 295 | 0.0 | 5.0 | 0.00 | 0.03 | 0.01 | 71 | 1014.1 |
| 20260503000554 | 41 | 0 | 1.0 | 4.0 | 0.00 | 0.03 | 0.01 | 71 | 1014.0 |
| 20260503000104 | 42 | 338 | 0.0 | 4.0 | 0.00 | 0.03 | 0.01 | 71 | 1014.0 |
| 20260502235554 | 42 | 330 | 1.0 | 4.0 | 0.00 | 0.03 | 0.01 | 70 | 1013.9 |
| 20260502235054 | 42 | 296 | 0.0 | 4.0 | 0.00 | 0.03 | 0.01 | 70 | 1013.8 |
| 20260502234618 | 42 | 319 | 1.0 | 4.0 | 0.00 | 0.03 | 0.01 | 69 | 1013.8 |
| 20260502234054 | 42 | 316 | 1.0 | 7.0 | 0.00 | 0.03 | 0.01 | 68 | 1013.9 |
| 20260502233554 | 42 | 333 | 3.0 | 7.0 | 0.00 | 0.03 | 0.01 | 69 | 1013.8 |
| 20260502233054 | 43 | 345 | 2.0 | 5.0 | 0.00 | 0.03 | 0.01 | 67 | 1013.8 |
| 20260502232554 | 43 | 308 | 2.0 | 6.0 | 0.00 | 0.03 | 0.01 | 68 | 1013.8 |
| 20260502232055 | 43 | 312 | 2.0 | 6.0 | 0.00 | 0.03 | 0.01 | 66 | 1013.8 |
| 20260502231556 | 43 | 306 | 2.0 | 7.0 | 0.00 | 0.03 | 0.01 | 65 | 1013.8 |
| 20260502231055 | 43 | 0 | 3.0 | 7.0 | 0.00 | 0.03 | 0.01 | 64 | 1013.7 |
| 20260502230555 | 43 | 337 | 2.0 | 6.0 | 0.00 | 0.03 | 0.01 | 64 | 1013.7 |
| 20260502230055 | 43 | 263 | 2.0 | 5.0 | 0.00 | 0.03 | 0.01 | 64 | 1013.6 |
| 20260502225558 | 44 | 295 | 1.0 | 5.0 | 0.00 | 0.03 | 0.01 | 64 | 1013.6 |
| 20260502225054 | 44 | 0 | 1.0 | 5.0 | 0.00 | 0.03 | 0.01 | 64 | 1013.5 |
| 20260502224559 | 44 | 0 | 1.0 | 7.0 | 0.00 | 0.03 | 0.01 | 65 | 1013.5 |
| 20260502224054 | 44 | 299 | 1.0 | 9.0 | 0.00 | 0.03 | 0.01 | 64 | 1013.5 |
| 20260502223559 | 44 | 290 | 4.0 | 9.0 | 0.00 | 0.03 | 0.01 | 64 | 1013.6 |
| 20260502223105 | 44 | 300 | 5.0 | 9.0 | 0.00 | 0.03 | 0.01 | 64 | 1013.6 |
| 20260502222555 | 45 | 289 | 3.0 | 13.0 | 0.00 | 0.03 | 0.01 | 61 | 1013.6 |
| 20260502222055 | 45 | 318 | 4.0 | 13.0 | 0.00 | 0.03 | 0.01 | 61 | 1013.6 |
| 20260502221600 | 46 | 298 | 3.0 | 8.0 | 0.00 | 0.03 | 0.01 | 60 | 1013.6 |
| 20260502221054 | 46 | 352 | 4.0 | 8.0 | 0.00 | 0.03 | 0.01 | 62 | 1013.5 |
| 20260502220557 | 46 | 316 | 3.0 | 10.0 | 0.00 | 0.03 | 0.01 | 60 | 1013.6 |
| 20260502215555 | 46 | 331 | 3.0 | 8.0 | 0.00 | 0.03 | 0.01 | 63 | 1013.6 |
| 20260502215055 | 46 | 323 | 2.0 | 5.0 | 0.00 | 0.03 | 0.01 | 62 | 1013.5 |
| 20260502214614 | 45 | 347 | 2.0 | 5.0 | 0.00 | 0.03 | 0.01 | 63 | 1013.6 |
| 20260502214054 | 45 | 335 | 1.0 | 7.0 | 0.00 | 0.03 | 0.01 | 65 | 1013.5 |
| 20260502213557 | 46 | 345 | 1.0 | 7.0 | 0.00 | 0.03 | 0.01 | 64 | 1013.4 |
| 20260502213118 | 46 | 330 | 1.0 | 7.0 | 0.00 | 0.03 | 0.01 | 61 | 1013.4 |
| 20260502212556 | 46 | 285 | 2.0 | 7.0 | 0.00 | 0.03 | 0.01 | 62 | 1013.4 |
| 20260502212055 | 46 | 342 | 2.0 | 8.0 | 0.00 | 0.03 | 0.01 | 61 | 1013.3 |
| 20260502211558 | 46 | 324 | 3.0 | 8.0 | 0.00 | 0.03 | 0.01 | 63 | 1013.4 |
| 20260502211056 | 45 | 353 | 4.0 | 8.0 | 0.00 | 0.03 | 0.01 | 61 | 1013.4 |
| 20260502210556 | 46 | 322 | 4.0 | 8.0 | 0.00 | 0.03 | 0.01 | 61 | 1013.3 |
| 20260502210054 | 45 | 288 | 6.0 | 8.0 | 0.00 | 0.03 | 0.01 | 61 | 1013.3 |
| 20260502205556 | 45 | 292 | 5.0 | 9.0 | 0.00 | 0.03 | 0.01 | 62 | 1013.4 |
| 20260502205101 | 45 | 295 | 2.0 | 10.0 | 0.00 | 0.03 | 0.01 | 61 | 1013.3 |
| 20260502204555 | 46 | 321 | 5.0 | 10.0 | 0.00 | 0.03 | 0.01 | 61 | 1013.4 |
| 20260502204100 | 46 | 298 | 4.0 | 7.0 | 0.00 | 0.03 | 0.01 | 61 | 1013.3 |
| 20260502203554 | 46 | 347 | 3.0 | 13.0 | 0.00 | 0.03 | 0.01 | 59 | 1013.3 |
| 20260502203114 | 45 | 308 | 4.0 | 13.0 | 0.00 | 0.03 | 0.01 | 59 | 1013.4 |
| 20260502202602 | 46 | 301 | 4.0 | 10.0 | 0.00 | 0.03 | 0.01 | 59 | 1013.4 |
| 20260502202055 | 46 | 297 | 4.0 | 12.0 | 0.00 | 0.03 | 0.01 | 57 | 1013.4 |
| 20260502201556 | 47 | 290 | 5.0 | 12.0 | 0.00 | 0.03 | 0.01 | 59 | 1013.4 |
| 20260502201058 | 48 | 295 | 5.0 | 13.0 | 0.00 | 0.03 | 0.01 | 55 | 1013.4 |
| 20260502200555 | 48 | 295 | 6.0 | 13.0 | 0.00 | 0.03 | 0.01 | 58 | 1013.2 |
| 20260502200059 | 49 | 332 | 4.0 | 13.0 | 0.00 | 0.03 | 0.01 | 54 | 1013.4 |
| 20260502195554 | 48 | 314 | 4.0 | 11.0 | 0.00 | 0.03 | 0.01 | 57 | 1013.3 |
| 20260502195059 | 48 | 283 | 4.0 | 12.0 | 0.00 | 0.03 | 0.01 | 55 | 1013.4 |
| 20260502194558 | 48 | 342 | 6.0 | 12.0 | 0.00 | 0.03 | 0.01 | 59 | 1013.5 |
| 20260502194054 | 47 | 288 | 6.0 | 14.0 | 0.00 | 0.03 | 0.01 | 56 | 1013.6 |
| 20260502193557 | 47 | 281 | 6.0 | 14.0 | 0.00 | 0.03 | 0.01 | 56 | 1013.6 |
| 20260502193054 | 47 | 272 | 7.0 | 14.0 | 0.00 | 0.03 | 0.01 | 55 | 1013.7 |
| 20260502192556 | 47 | 297 | 2.0 | 8.0 | 0.00 | 0.03 | 0.01 | 58 | 1013.6 |
| 20260502192056 | 47 | 326 | 2.0 | 9.0 | 0.00 | 0.03 | 0.01 | 55 | 1013.7 |
| 20260502191602 | 46 | 341 | 4.0 | 9.0 | 0.00 | 0.03 | 0.01 | 56 | 1013.7 |
| 20260502191054 | 46 | 248 | 3.0 | 9.0 | 0.00 | 0.03 | 0.01 | 57 | 1013.8 |
| 20260502190556 | 46 | 285 | 2.0 | 7.0 | 0.00 | 0.03 | 0.01 | 58 | 1013.8 |
| 20260502190056 | 46 | 30 | 2.0 | 9.0 | 0.00 | 0.03 | 0.01 | 60 | 1013.8 |
| 20260502185559 | 46 | 337 | 3.0 | 9.0 | 0.00 | 0.03 | 0.01 | 58 | 1013.8 |
| 20260502185057 | 46 | 242 | 5.0 | 10.0 | 0.00 | 0.03 | 0.01 | 58 | 1013.9 |
| 20260502184603 | 46 | 295 | 4.0 | 10.0 | 0.00 | 0.03 | 0.01 | 59 | 1013.9 |
| 20260502184054 | 46 | 318 | 3.0 | 8.0 | 0.00 | 0.03 | 0.01 | 59 | 1013.8 |
| 20260502183556 | 45 | 335 | 1.0 | 6.0 | 0.00 | 0.03 | 0.01 | 62 | 1013.9 |
| 20260502183104 | 45 | 311 | 2.0 | 9.0 | 0.00 | 0.03 | 0.01 | 60 | 1013.9 |
| 20260502182558 | 45 | 307 | 2.0 | 9.0 | 0.00 | 0.03 | 0.01 | 59 | 1013.8 |
| 20260502182054 | 45 | 286 | 3.0 | 7.0 | 0.00 | 0.03 | 0.01 | 61 | 1013.8 |
| 20260502181601 | 45 | 277 | 3.0 | 9.0 | 0.00 | 0.03 | 0.01 | 61 | 1013.8 |
| 20260502181054 | 45 | 342 | 3.0 | 9.0 | 0.00 | 0.03 | 0.01 | 59 | 1013.8 |
| 20260502180554 | 46 | 309 | 2.0 | 6.0 | 0.00 | 0.03 | 0.01 | 60 | 1013.7 |
| 20260502164054 | 46 | 316 | 1.0 | 11.0 | 0.00 | 0.03 | 0.01 | 61 | 1013.6 |
| 20260502163554 | 46 | 360 | 3.0 | 11.0 | 0.00 | 0.03 | 0.01 | 62 | 1013.6 |
| 20260502163111 | 46 | 309 | 3.0 | 11.0 | 0.00 | 0.03 | 0.01 | 61 | 1013.7 |
| 20260502162554 | 46 | 336 | 3.0 | 7.0 | 0.00 | 0.03 | 0.01 | 62 | 1013.6 |
| 20260502162054 | 46 | 291 | 1.0 | 11.0 | 0.00 | 0.03 | 0.01 | 63 | 1013.6 |
| 20260502161619 | 45 | 328 | 2.0 | 11.0 | 0.00 | 0.03 | 0.01 | 63 | 1013.5 |
| 20260502161055 | 45 | 320 | 2.0 | 8.0 | 0.00 | 0.03 | 0.01 | 60 | 1013.6 |
| 20260502160554 | 46 | 5 | 3.0 | 11.0 | 0.00 | 0.03 | 0.01 | 63 | 1013.5 |
| 20260502152054 | 46 | 300 | 5.0 | 12.0 | 0.00 | 0.03 | 0.01 | 58 | 1013.7 |
| 20260502151555 | 46 | 320 | 5.0 | 11.0 | 0.00 | 0.03 | 0.01 | 65 | 1013.7 |
| 20260502151057 | 46 | 251 | 4.0 | 11.0 | 0.00 | 0.03 | 0.01 | 61 | 1013.7 |
| 20260502150556 | 45 | 269 | 6.0 | 11.0 | 0.00 | 0.03 | 0.01 | 61 | 1013.8 |
| 20260502130558 | 41 | 308 | 5.0 | 12.0 | 0.00 | 0.03 | 0.01 | 76 | 1014.7 |
| 20260502130108 | 40 | 279 | 3.0 | 13.0 | 0.00 | 0.03 | 0.01 | 77 | 1014.7 |
| 20260502123557 | 39 | 292 | 4.0 | 13.0 | 0.00 | 0.03 | 0.01 | 81 | 1014.7 |
| 20260502123113 | 39 | 302 | 5.0 | 13.0 | 0.00 | 0.03 | 0.01 | 81 | 1014.8 |
| 20260502122556 | 39 | 309 | 5.0 | 12.0 | 0.00 | 0.03 | 0.01 | 82 | 1014.7 |
| 20260502122059 | 39 | 323 | 5.0 | 10.0 | 0.00 | 0.03 | 0.01 | 81 | 1014.7 |
| 20260502121558 | 39 | 311 | 3.0 | 10.0 | 0.00 | 0.03 | 0.01 | 83 | 1014.6 |
| 20260502121055 | 39 | 306 | 5.0 | 10.0 | 0.00 | 0.03 | 0.01 | 84 | 1014.6 |
| 20260502120555 | 39 | 276 | 6.0 | 10.0 | 0.00 | 0.03 | 0.01 | 83 | 1014.6 |
| 20260502120114 | 39 | 285 | 3.0 | 7.0 | 0.00 | 0.03 | 0.01 | 85 | 1014.6 |
| 20260502115554 | 38 | 291 | 3.0 | 7.0 | 0.00 | 0.03 | 0.01 | 84 | 1014.6 |
| 20260502115054 | 38 | 284 | 4.0 | 7.0 | 0.00 | 0.03 | 0.01 | 84 | 1014.5 |
| 20260502114604 | 38 | 293 | 4.0 | 9.0 | 0.00 | 0.03 | 0.01 | 85 | 1014.4 |
| 20260502114054 | 38 | 275 | 5.0 | 9.0 | 0.00 | 0.03 | 0.01 | 85 | 1014.4 |
| 20260502113555 | 38 | 297 | 4.0 | 9.0 | 0.00 | 0.03 | 0.01 | 85 | 1014.3 |
| 20260502113127 | 38 | 293 | 2.0 | 7.0 | 0.00 | 0.03 | 0.01 | 86 | 1014.3 |
| 20260502112554 | 38 | 285 | 4.0 | 7.0 | 0.00 | 0.03 | 0.01 | 86 | 1014.4 |
| 20260502112054 | 38 | 297 | 3.0 | 10.0 | 0.00 | 0.03 | 0.01 | 87 | 1014.4 |
| 20260502111556 | 38 | 288 | 4.0 | 10.0 | 0.00 | 0.03 | 0.01 | 87 | 1014.3 |
| 20260502111059 | 38 | 288 | 5.0 | 10.0 | 0.00 | 0.03 | 0.01 | 86 | 1014.3 |
| 20260502110555 | 38 | 304 | 4.0 | 7.0 | 0.00 | 0.03 | 0.01 | 86 | 1014.3 |
| 20260502110058 | 38 | 289 | 2.0 | 5.0 | 0.00 | 0.03 | 0.01 | 86 | 1014.3 |
| 20260502105555 | 38 | 292 | 2.0 | 6.0 | 0.00 | 0.03 | 0.01 | 87 | 1014.1 |
| 20260502105054 | 38 | 301 | 2.0 | 6.0 | 0.00 | 0.03 | 0.01 | 87 | 1014.1 |
| 20260502104603 | 38 | 297 | 1.0 | 4.0 | 0.00 | 0.03 | 0.01 | 87 | 1014.0 |
| 20260502104054 | 37 | 333 | 1.0 | 6.0 | 0.00 | 0.03 | 0.01 | 87 | 1014.0 |
| 20260502103557 | 38 | 293 | 1.0 | 6.0 | 0.00 | 0.03 | 0.01 | 87 | 1013.9 |
| 20260502103059 | 38 | 301 | 2.0 | 5.0 | 0.00 | 0.03 | 0.01 | 87 | 1014.0 |
| 20260502102554 | 38 | 316 | 1.0 | 6.0 | 0.00 | 0.03 | 0.01 | 86 | 1013.9 |
| 20260502102054 | 38 | 293 | 2.0 | 7.0 | 0.00 | 0.03 | 0.01 | 86 | 1013.8 |
| 20260502101604 | 38 | 301 | 2.0 | 7.0 | 0.00 | 0.03 | 0.01 | 86 | 1013.6 |
| 20260502101055 | 38 | 316 | 2.0 | 7.0 | 0.00 | 0.03 | 0.01 | 85 | 1013.6 |
| 20260502100554 | 38 | 267 | 2.0 | 7.0 | 0.00 | 0.03 | 0.01 | 86 | 1013.5 |
| 20260502100104 | 39 | 336 | 3.0 | 7.0 | 0.00 | 0.03 | 0.01 | 87 | 1013.6 |
| 20260502091054 | 40 | 293 | 2.0 | 5.0 | 0.00 | 0.03 | 0.01 | 92 | 1012.8 |
| 20260502090554 | 40 | 281 | 1.0 | 5.0 | 0.00 | 0.03 | 0.01 | 92 | 1012.7 |
| 20260502090107 | 40 | 0 | 2.0 | 4.0 | 0.00 | 0.03 | 0.01 | 92 | 1012.6 |
| 20260502071054 | 38 | 0 | 0.0 | 0.0 | 0.00 | 0.03 | 0.01 | 92 | 1012.4 |
| 20260502070557 | 38 | 0 | 0.0 | 0.0 | 0.00 | 0.03 | 0.01 | 92 | 1012.4 |
| 20260502070110 | 38 | 0 | 0.0 | 0.0 | 0.00 | 0.03 | 0.01 | 92 | 1012.5 |
| 20260502065555 | 38 | 0 | 0.0 | 0.0 | 0.00 | 0.03 | 0.01 | 92 | 1012.6 |
| 20260502065054 | 38 | 0 | 0.0 | 0.0 | 0.00 | 0.03 | 0.01 | 91 | 1012.5 |
| 20260502064555 | 38 | 0 | 0.0 | 0.0 | 0.00 | 0.03 | 0.01 | 91 | 1012.6 |
| 20260502064054 | 38 | 0 | 0.0 | 0.0 | 0.00 | 0.03 | 0.01 | 91 | 1012.4 |
| 20260502063555 | 38 | 0 | 0.0 | 0.0 | 0.01 | 0.03 | 0.01 | 91 | 1012.3 |
| 20260502063057 | 38 | 0 | 0.0 | 0.0 | 0.01 | 0.03 | 0.01 | 91 | 1012.3 |
| 20260502062556 | 38 | 0 | 0.0 | 0.0 | 0.01 | 0.03 | 0.01 | 91 | 1012.4 |
| 20260502062054 | 38 | 0 | 0.0 | 0.0 | 0.01 | 0.03 | 0.01 | 91 | 1012.4 |
| 20260502061556 | 38 | 0 | 0.0 | 0.0 | 0.01 | 0.03 | 0.01 | 90 | 1012.5 |
| 20260502061057 | 39 | 0 | 0.0 | 0.0 | 0.01 | 0.03 | 0.01 | 90 | 1012.5 |
| 20260502060554 | 39 | 0 | 0.0 | 0.0 | 0.01 | 0.03 | 0.01 | 91 | 1012.5 |
| 20260502060056 | 39 | 0 | 0.0 | 0.0 | 0.01 | 0.03 | 0.01 | 91 | 1012.4 |
| 20260502055559 | 39 | 0 | 0.0 | 0.0 | 0.01 | 0.03 | 0.01 | 91 | 1012.6 |
| 20260502055058 | 39 | 0 | 0.0 | 0.0 | 0.01 | 0.03 | 0.01 | 91 | 1012.6 |
| 20260502054556 | 40 | 0 | 0.0 | 0.0 | 0.01 | 0.03 | 0.01 | 91 | 1012.7 |
| 20260502054055 | 40 | 0 | 0.0 | 0.0 | 0.01 | 0.03 | 0.01 | 91 | 1012.8 |
| 20260502053556 | 40 | 0 | 0.0 | 0.0 | 0.00 | 0.02 | 0.00 | 91 | 1012.9 |
| 20260502053059 | 40 | 0 | 0.0 | 2.0 | 0.00 | 0.02 | 0.00 | 91 | 1013.0 |
| 20260502052555 | 40 | 0 | 0.0 | 3.0 | 0.00 | 0.02 | 0.00 | 91 | 1013.0 |
| 20260502052056 | 39 | 222 | 1.0 | 3.0 | 0.00 | 0.02 | 0.00 | 91 | 1013.0 |
| 20260502051602 | 39 | 0 | 0.0 | 0.0 | 0.00 | 0.02 | 0.00 | 91 | 1013.1 |
| 20260502051054 | 39 | 0 | 0.0 | 0.0 | 0.00 | 0.02 | 0.00 | 91 | 1013.0 |
| 20260502050554 | 39 | 0 | 0.0 | 0.0 | 0.00 | 0.02 | 0.00 | 90 | 1013.0 |
| 20260502050056 | 39 | 0 | 0.0 | 0.0 | 0.00 | 0.02 | 0.00 | 90 | 1013.0 |
| 20260502045600 | 39 | 0 | 0.0 | 0.0 | 0.00 | 0.02 | 0.00 | 90 | 1013.0 |
| 20260502045056 | 39 | 0 | 0.0 | 0.0 | 0.00 | 0.02 | 0.00 | 90 | 1012.9 |
| 20260502044614 | 39 | 0 | 0.0 | 0.0 | 0.00 | 0.02 | 0.00 | 90 | 1012.9 |
| 20260502044056 | 39 | 0 | 0.0 | 0.0 | 0.00 | 0.02 | 0.00 | 90 | 1013.0 |
| 20260502043600 | 39 | 0 | 0.0 | 0.0 | 0.00 | 0.02 | 0.00 | 90 | 1013.0 |
| 20260502043058 | 39 | 0 | 0.0 | 0.0 | 0.00 | 0.02 | 0.00 | 89 | 1012.9 |
| 20260502042556 | 39 | 0 | 0.0 | 0.0 | 0.00 | 0.02 | 0.00 | 89 | 1013.0 |
| 20260502042057 | 39 | 0 | 0.0 | 0.0 | 0.00 | 0.02 | 0.00 | 89 | 1012.9 |
| 20260502041554 | 40 | 0 | 0.0 | 0.0 | 0.00 | 0.02 | 0.00 | 89 | 1012.9 |
| 20260502041058 | 40 | 0 | 0.0 | 0.0 | 0.00 | 0.02 | 0.00 | 89 | 1013.0 |
| 20260502040557 | 40 | 0 | 0.0 | 0.0 | 0.00 | 0.02 | 0.00 | 89 | 1013.0 |
| 20260502040104 | 40 | 0 | 0.0 | 0.0 | 0.00 | 0.02 | 0.00 | 89 | 1012.9 |
| 20260502035557 | 40 | 0 | 0.0 | 0.0 | 0.00 | 0.02 | 0.02 | 89 | 1013.0 |
| 20260502035055 | 40 | 0 | 0.0 | 0.0 | 0.00 | 0.02 | 0.02 | 89 | 1013.0 |
| 20260502034557 | 40 | 0 | 0.0 | 0.0 | 0.00 | 0.02 | 0.02 | 89 | 1012.9 |
| 20260502034055 | 40 | 0 | 0.0 | 0.0 | 0.00 | 0.02 | 0.02 | 89 | 1012.9 |
| 20260502033554 | 40 | 0 | 0.0 | 0.0 | 0.00 | 0.02 | 0.02 | 89 | 1012.8 |
| 20260502033057 | 40 | 0 | 0.0 | 0.0 | 0.00 | 0.02 | 0.02 | 89 | 1012.8 |
| 20260502032556 | 40 | 0 | 0.0 | 0.0 | 0.00 | 0.02 | 0.02 | 88 | 1012.7 |
| 20260502032056 | 40 | 0 | 0.0 | 0.0 | 0.00 | 0.02 | 0.02 | 88 | 1012.7 |
| 20260502031554 | 40 | 0 | 0.0 | 0.0 | 0.01 | 0.02 | 0.02 | 88 | 1012.8 |
| 20260502031055 | 40 | 0 | 0.0 | 0.0 | 0.01 | 0.02 | 0.02 | 88 | 1012.7 |
| 20260502030600 | 40 | 0 | 0.0 | 0.0 | 0.01 | 0.02 | 0.02 | 88 | 1012.7 |
| 20260502030101 | 40 | 0 | 0.0 | 0.0 | 0.01 | 0.02 | 0.02 | 88 | 1012.7 |
| 20260502025557 | 40 | 0 | 0.0 | 0.0 | 0.01 | 0.02 | 0.02 | 88 | 1012.7 |
| 20260502025057 | 40 | 0 | 0.0 | 0.0 | 0.01 | 0.02 | 0.02 | 88 | 1012.8 |
| 20260502024555 | 40 | 0 | 0.0 | 0.0 | 0.01 | 0.02 | 0.02 | 88 | 1012.8 |
| 20260502024056 | 40 | 0 | 0.0 | 0.0 | 0.01 | 0.02 | 0.02 | 88 | 1012.8 |
| 20260502023555 | 40 | 0 | 0.0 | 0.0 | 0.01 | 0.02 | 0.02 | 87 | 1012.8 |
| 20260502023056 | 40 | 0 | 0.0 | 0.0 | 0.01 | 0.02 | 0.02 | 87 | 1012.8 |
| 20260502022555 | 40 | 0 | 0.0 | 0.0 | 0.02 | 0.02 | 0.02 | 87 | 1012.8 |
| 20260502022055 | 40 | 0 | 0.0 | 0.0 | 0.02 | 0.02 | 0.02 | 87 | 1012.8 |
| 20260502021556 | 40 | 0 | 0.0 | 0.0 | 0.01 | 0.01 | 0.01 | 87 | 1012.8 |
| 20260502021056 | 40 | 0 | 0.0 | 0.0 | 0.01 | 0.01 | 0.01 | 87 | 1012.9 |
| 20260502020557 | 40 | 0 | 0.0 | 0.0 | 0.01 | 0.01 | 0.01 | 87 | 1012.9 |
| 20260502020057 | 40 | 0 | 0.0 | 0.0 | 0.01 | 0.01 | 0.01 | 86 | 1012.8 |
| 20260502015557 | 40 | 0 | 0.0 | 0.0 | 0.01 | 0.01 | 0.01 | 86 | 1012.9 |
| 20260502015056 | 40 | 0 | 0.0 | 0.0 | 0.01 | 0.01 | 0.01 | 86 | 1012.9 |
| 20260502014554 | 40 | 0 | 0.0 | 0.0 | 0.01 | 0.01 | 0.01 | 86 | 1012.8 |
| 20260502014056 | 40 | 0 | 0.0 | 0.0 | 0.01 | 0.01 | 0.01 | 86 | 1012.8 |
| 20260502013555 | 40 | 0 | 0.0 | 0.0 | 0.01 | 0.01 | 0.01 | 85 | 1012.8 |
| 20260502013054 | 40 | 0 | 0.0 | 0.0 | 0.01 | 0.01 | 0.01 | 85 | 1012.8 |
| 20260502012556 | 40 | 0 | 0.0 | 0.0 | 0.00 | 0.00 | 0.00 | 85 | 1012.7 |
| 20260502012055 | 40 | 0 | 0.0 | 0.0 | 0.00 | 0.00 | 0.00 | 84 | 1012.6 |
| 20260502011557 | 41 | 0 | 0.0 | 0.0 | 0.00 | 0.00 | 0.00 | 84 | 1012.7 |
| 20260502011054 | 41 | 0 | 0.0 | 0.0 | 0.00 | 0.00 | 0.00 | 84 | 1012.6 |
| 20260502010556 | 41 | 0 | 0.0 | 0.0 | 0.00 | 0.00 | 0.00 | 83 | 1012.5 |
| 20260502010056 | 41 | 0 | 0.0 | 0.0 | 0.00 | 0.00 | 0.00 | 83 | 1012.5 |
| 20260502005558 | 41 | 0 | 0.0 | 0.0 | 0.00 | 0.00 | 0.00 | 83 | 1012.5 |
| 20260502005055 | 41 | 0 | 0.0 | 0.0 | 0.00 | 0.00 | 0.00 | 82 | 1012.5 |
| 20260502004556 | 41 | 0 | 0.0 | 0.0 | 0.00 | 0.00 | 0.00 | 82 | 1012.4 |
| 20260502004056 | 41 | 0 | 0.0 | 0.0 | 0.00 | 0.00 | 0.00 | 82 | 1012.4 |
| 20260502003556 | 41 | 0 | 0.0 | 0.0 | 0.00 | 0.00 | 0.00 | 81 | 1012.4 |
| 20260502003057 | 42 | 0 | 0.0 | 0.0 | 0.00 | 0.00 | 0.00 | 80 | 1012.4 |
| 20260502002557 | 42 | 0 | 0.0 | 0.0 | 0.00 | 0.00 | 0.00 | 80 | 1012.3 |